TGL16LR LICC-LCLK

Flight info

Callsign TGL16LR
Flight time N/A
Altitude 36000
Route PIMOR DCT DODEL DCT BELIX/N0434F350 DCT TITUS/N0433F370 DCT EPALO DCT KPC DCT TOSKA DCT BONEK
Aircraft A320/M-SDE3FGHIRWY/LB1

Departure

Time N/A
Airport Catania-Fontanarossa Airport (LICC)

Arrival

Time 2026-05-06 11:14
Airport Larnaca International Airport (LCLK)
Time Latitude Longitude Altitude Speed Heading
2026-05-06 09:19 37.37361 17.24029 31812 ft 458 kts 107°
2026-05-06 09:19 37.36506 17.27882 32119 ft 457 kts 107°
2026-05-06 09:20 37.35654 17.31724 32419 ft 457 kts 107°
2026-05-06 09:20 37.34806 17.35518 32707 ft 457 kts 107°
2026-05-06 09:20 37.33932 17.39408 32999 ft 456 kts 107°
2026-05-06 09:20 37.33078 17.43187 33267 ft 457 kts 108°
2026-05-06 09:21 37.32213 17.47025 33553 ft 457 kts 108°
2026-05-06 09:21 37.31348 17.50869 33844 ft 456 kts 108°
2026-05-06 09:21 37.30485 17.54703 34132 ft 456 kts 108°
2026-05-06 09:21 37.29625 17.58529 34380 ft 456 kts 108°
2026-05-06 09:22 37.28760 17.62361 34610 ft 456 kts 108°
2026-05-06 09:22 37.27891 17.66194 34827 ft 456 kts 108°
2026-05-06 09:22 37.27020 17.70030 35031 ft 457 kts 108°
2026-05-06 09:23 37.25280 17.77665 35129 ft 452 kts 108°
2026-05-06 09:23 37.23554 17.85226 35129 ft 449 kts 108°
2026-05-06 09:24 37.21836 17.92754 35131 ft 449 kts 108°
2026-05-06 09:24 37.20109 18.00282 35133 ft 449 kts 108°
2026-05-06 09:25 37.18375 18.07800 35135 ft 449 kts 108°
2026-05-06 09:25 37.16629 18.15317 35134 ft 449 kts 108°
2026-05-06 09:26 37.14891 18.22831 35137 ft 449 kts 108°
2026-05-06 09:26 37.13143 18.30334 35136 ft 449 kts 108°
2026-05-06 09:27 37.11399 18.37793 35137 ft 449 kts 108°
2026-05-06 09:27 37.09645 18.45298 35131 ft 449 kts 108°
2026-05-06 09:28 37.07887 18.52795 35137 ft 449 kts 108°
2026-05-06 09:28 37.06122 18.60282 35139 ft 448 kts 108°
2026-05-06 09:29 37.04352 18.67768 35134 ft 448 kts 108°
2026-05-06 09:29 37.02576 18.75254 35138 ft 449 kts 108°
2026-05-06 09:30 37.00796 18.82733 35134 ft 449 kts 108°
2026-05-06 09:30 36.99007 18.90216 35137 ft 449 kts 108°
2026-05-06 09:31 36.97553 18.97814 35137 ft 450 kts 101°
2026-05-06 09:31 36.96515 19.05533 35138 ft 450 kts 101°
2026-05-06 09:32 36.95488 19.13263 35135 ft 451 kts 100°
2026-05-06 09:32 36.94459 19.20997 35136 ft 451 kts 100°
2026-05-06 09:33 36.93416 19.28731 35138 ft 452 kts 101°
2026-05-06 09:33 36.92363 19.36475 35140 ft 452 kts 101°
2026-05-06 09:34 36.91308 19.44222 35145 ft 452 kts 101°
2026-05-06 09:34 36.90249 19.51970 35141 ft 453 kts 101°
2026-05-06 09:35 36.89191 19.59695 35138 ft 454 kts 101°
2026-05-06 09:35 36.88116 19.67465 35142 ft 454 kts 101°
2026-05-06 09:36 36.87033 19.75258 35148 ft 455 kts 101°
2026-05-06 09:36 36.85944 19.83036 35145 ft 455 kts 101°
2026-05-06 09:37 36.84849 19.90817 35144 ft 455 kts 101°
2026-05-06 09:37 36.83755 19.98595 35145 ft 455 kts 101°
2026-05-06 09:38 36.82658 20.06373 35146 ft 455 kts 101°
2026-05-06 09:38 36.81550 20.14144 35151 ft 455 kts 101°
2026-05-06 09:39 36.80436 20.21923 35140 ft 456 kts 101°
2026-05-06 09:39 36.79879 20.25808 35138 ft 456 kts 101°
2026-05-06 09:40 36.78833 20.33106 35134 ft 456 kts 101°
2026-05-06 09:40 36.77139 20.44738 35135 ft 456 kts 101°
2026-05-06 09:41 36.76004 20.52523 35131 ft 457 kts 101°
2026-05-06 09:41 36.74867 20.60313 35131 ft 457 kts 101°
2026-05-06 09:42 36.73715 20.68112 35135 ft 458 kts 101°
2026-05-06 09:42 36.72557 20.75912 35135 ft 458 kts 101°
2026-05-06 09:43 36.71396 20.83724 35137 ft 459 kts 100°
2026-05-06 09:43 36.70232 20.91542 35135 ft 459 kts 100°
2026-05-06 09:44 36.69066 20.99363 35137 ft 459 kts 101°
2026-05-06 09:44 36.67891 21.07187 35135 ft 460 kts 101°
2026-05-06 09:45 36.66708 21.15010 35133 ft 460 kts 101°
2026-05-06 09:45 36.65511 21.22839 35136 ft 460 kts 101°
2026-05-06 09:46 36.64314 21.30667 35139 ft 460 kts 101°
2026-05-06 09:46 36.63112 21.38500 35142 ft 460 kts 101°
2026-05-06 09:47 36.61906 21.46325 35140 ft 460 kts 101°
2026-05-06 09:47 36.60697 21.54148 35143 ft 460 kts 101°
2026-05-06 09:48 36.59482 21.61967 35138 ft 460 kts 101°
2026-05-06 09:48 36.58464 21.68462 35137 ft 460 kts 101°
2026-05-06 09:49 36.57236 21.76269 35138 ft 460 kts 101°
2026-05-06 09:49 36.56011 21.84077 35132 ft 460 kts 101°
2026-05-06 09:50 36.54776 21.91873 35130 ft 459 kts 101°
2026-05-06 09:50 36.53530 21.99666 35129 ft 459 kts 101°
2026-05-06 09:51 36.52290 22.07454 35128 ft 459 kts 101°
2026-05-06 09:51 36.51050 22.15245 35128 ft 459 kts 101°
2026-05-06 09:52 36.49793 22.23034 35121 ft 460 kts 101°
2026-05-06 09:52 36.48526 22.30816 35121 ft 460 kts 101°
2026-05-06 09:53 36.47574 22.38664 35123 ft 459 kts 96°
2026-05-06 09:53 36.46885 22.46547 35130 ft 459 kts 95°
2026-05-06 09:54 36.46236 22.54441 35123 ft 459 kts 95°
2026-05-06 09:54 36.45561 22.62277 35113 ft 460 kts 95°
2026-05-06 09:55 36.44844 22.70220 35112 ft 460 kts 95°
2026-05-06 09:55 36.44124 22.78061 35111 ft 460 kts 95°
2026-05-06 09:56 36.43402 22.85956 35113 ft 461 kts 95°
2026-05-06 09:56 36.42679 22.93864 35120 ft 461 kts 95°
2026-05-06 09:57 36.41949 23.01778 35118 ft 461 kts 95°
2026-05-06 09:57 36.41215 23.09690 35122 ft 461 kts 95°
2026-05-06 09:58 36.40472 23.17604 35118 ft 462 kts 95°
2026-05-06 09:58 36.39721 23.25528 35119 ft 462 kts 95°
2026-05-06 09:59 36.38965 23.33451 35118 ft 462 kts 95°
2026-05-06 09:59 36.38209 23.41378 35114 ft 463 kts 95°
2026-05-06 10:00 36.37442 23.49301 35113 ft 463 kts 95°
2026-05-06 10:00 36.36672 23.57238 35115 ft 463 kts 95°
2026-05-06 10:01 36.35895 23.65177 35116 ft 464 kts 95°
2026-05-06 10:01 36.35114 23.73119 35117 ft 464 kts 95°
2026-05-06 10:02 36.34324 23.81063 35122 ft 464 kts 95°
2026-05-06 10:02 36.33531 23.89012 35116 ft 465 kts 95°
2026-05-06 10:03 36.32743 23.96918 35116 ft 465 kts 95°
2026-05-06 10:03 36.31938 24.04880 35121 ft 466 kts 95°
2026-05-06 10:04 36.31127 24.12847 35121 ft 466 kts 95°
2026-05-06 10:04 36.30304 24.20820 35114 ft 467 kts 95°
2026-05-06 10:05 36.29477 24.28806 35110 ft 467 kts 95°
2026-05-06 10:05 36.28650 24.36785 35111 ft 467 kts 95°
2026-05-06 10:06 36.27814 24.44776 35121 ft 468 kts 95°
2026-05-06 10:06 36.26973 24.52774 35117 ft 468 kts 95°
2026-05-06 10:07 36.26123 24.60777 35114 ft 469 kts 95°
2026-05-06 10:07 36.25268 24.68785 35114 ft 469 kts 95°
2026-05-06 10:08 36.24410 24.76803 35116 ft 470 kts 95°
2026-05-06 10:08 36.23539 24.84823 35112 ft 470 kts 95°
2026-05-06 10:09 36.22662 24.92843 35119 ft 470 kts 95°
2026-05-06 10:09 36.21785 25.00865 35131 ft 470 kts 95°
2026-05-06 10:10 36.20909 25.08833 35122 ft 471 kts 95°
2026-05-06 10:10 36.20020 25.16865 35114 ft 471 kts 95°
2026-05-06 10:11 36.19125 25.24900 35119 ft 471 kts 95°
2026-05-06 10:11 36.18222 25.32936 35106 ft 472 kts 95°
2026-05-06 10:12 36.17317 25.40982 35114 ft 472 kts 95°
2026-05-06 10:12 36.16405 25.49025 35115 ft 472 kts 95°
2026-05-06 10:13 36.15483 25.57069 35117 ft 472 kts 95°
2026-05-06 10:13 36.14558 25.65115 35131 ft 472 kts 95°
2026-05-06 10:14 36.13630 25.73162 35124 ft 473 kts 95°
2026-05-06 10:14 36.12691 25.81214 35125 ft 473 kts 95°
2026-05-06 10:15 36.11747 25.89276 35127 ft 473 kts 95°
2026-05-06 10:15 36.10797 25.97330 35140 ft 474 kts 95°
2026-05-06 10:16 36.09842 26.05389 35122 ft 474 kts 95°
2026-05-06 10:16 36.08879 26.13465 35121 ft 475 kts 95°
2026-05-06 10:17 36.07905 26.21544 35118 ft 475 kts 95°
2026-05-06 10:17 36.06931 26.29625 35122 ft 476 kts 95°
2026-05-06 10:18 36.05949 26.37723 35121 ft 477 kts 95°
2026-05-06 10:18 36.04967 26.45766 35118 ft 477 kts 95°
2026-05-06 10:19 36.03972 26.53916 35119 ft 477 kts 95°
2026-05-06 10:19 36.02979 26.62021 35151 ft 477 kts 94°
2026-05-06 10:20 36.01984 26.70058 35138 ft 477 kts 94°
2026-05-06 10:20 36.00967 26.78158 35132 ft 477 kts 95°
2026-05-06 10:21 35.99943 26.86243 35128 ft 477 kts 95°
2026-05-06 10:21 35.98920 26.94331 35132 ft 477 kts 94°
2026-05-06 10:22 35.97896 27.02427 35125 ft 477 kts 95°
2026-05-06 10:22 35.96864 27.10526 35125 ft 477 kts 95°
2026-05-06 10:23 35.95827 27.18614 35136 ft 477 kts 95°
2026-05-06 10:23 35.94785 27.26706 35122 ft 478 kts 95°
2026-05-06 10:24 35.93731 27.34798 35118 ft 478 kts 95°
2026-05-06 10:24 35.92674 27.42888 35110 ft 478 kts 95°
2026-05-06 10:25 35.91615 27.50982 35110 ft 478 kts 95°
2026-05-06 10:25 35.90556 27.59064 35107 ft 477 kts 95°
2026-05-06 10:26 35.89484 27.67146 35101 ft 477 kts 96°
2026-05-06 10:26 35.88404 27.75219 35094 ft 477 kts 96°
2026-05-06 10:27 35.87321 27.83299 35092 ft 477 kts 96°
2026-05-06 10:27 35.86237 27.91367 35089 ft 477 kts 96°
2026-05-06 10:28 35.85141 27.99432 35086 ft 477 kts 96°
2026-05-06 10:28 35.84040 28.07485 35086 ft 477 kts 96°
2026-05-06 10:29 35.82942 28.15545 35078 ft 477 kts 96°
2026-05-06 10:29 35.81842 28.23601 35075 ft 477 kts 96°
2026-05-06 10:30 35.80727 28.31600 35077 ft 477 kts 96°
2026-05-06 10:30 35.79602 28.39656 35094 ft 477 kts 97°
2026-05-06 10:31 35.78486 28.47718 35103 ft 477 kts 96°
2026-05-06 10:31 35.77363 28.55771 35102 ft 477 kts 97°
2026-05-06 10:32 35.76221 28.63835 35096 ft 478 kts 97°
2026-05-06 10:32 35.75078 28.71883 35104 ft 478 kts 97°
2026-05-06 10:33 35.73930 28.79942 35100 ft 478 kts 97°
2026-05-06 10:33 35.72773 28.87994 35090 ft 478 kts 97°
2026-05-06 10:34 35.71618 28.96043 35094 ft 478 kts 97°
2026-05-06 10:34 35.70457 29.04091 35084 ft 479 kts 97°
2026-05-06 10:35 35.69287 29.12161 35082 ft 479 kts 97°
2026-05-06 10:35 35.68107 29.20238 35082 ft 480 kts 97°
2026-05-06 10:36 35.66926 29.28253 35085 ft 480 kts 97°
2026-05-06 10:36 35.65732 29.36339 35078 ft 481 kts 97°
2026-05-06 10:37 35.64533 29.44432 35077 ft 481 kts 98°
2026-05-06 10:37 35.63326 29.52527 35075 ft 482 kts 98°
2026-05-06 10:38 35.62115 29.60633 35083 ft 483 kts 98°
2026-05-06 10:38 35.60903 29.68742 35077 ft 483 kts 98°
2026-05-06 10:39 35.59877 29.75547 35073 ft 483 kts 98°
2026-05-06 10:39 35.58643 29.83661 35084 ft 484 kts 98°
2026-05-06 10:40 35.57405 29.91788 35075 ft 484 kts 98°
2026-05-06 10:40 35.56165 29.99919 35069 ft 485 kts 98°
2026-05-06 10:41 35.54915 30.08054 35066 ft 485 kts 98°
2026-05-06 10:41 35.53673 30.16132 35063 ft 485 kts 98°
2026-05-06 10:42 35.52414 30.24268 35065 ft 485 kts 99°
2026-05-06 10:42 35.51137 30.32407 35093 ft 486 kts 99°
2026-05-06 10:43 35.49859 30.40536 35104 ft 485 kts 99°
2026-05-06 10:44 35.47946 30.52700 35100 ft 484 kts 99°
2026-05-06 10:44 35.46670 30.60796 35097 ft 483 kts 99°
2026-05-06 10:45 35.45385 30.68884 35097 ft 483 kts 99°
2026-05-06 10:45 35.44087 30.76959 35095 ft 483 kts 99°
2026-05-06 10:46 35.42794 30.85040 35097 ft 483 kts 99°
2026-05-06 10:46 35.41489 30.93119 35096 ft 483 kts 99°
2026-05-06 10:47 35.40184 31.01187 35092 ft 483 kts 99°
2026-05-06 10:47 35.38866 31.09262 35089 ft 483 kts 100°
2026-05-06 10:48 35.37540 31.17333 35083 ft 483 kts 100°
2026-05-06 10:48 35.36216 31.25400 35091 ft 483 kts 100°
2026-05-06 10:49 35.34889 31.33462 35093 ft 483 kts 100°
2026-05-06 10:49 35.33552 31.41520 35058 ft 483 kts 100°
2026-05-06 10:49 35.32894 31.45478 34823 ft 479 kts 100°
2026-05-06 10:50 35.32231 31.49462 34589 ft 476 kts 100°
2026-05-06 10:50 35.31571 31.53418 34361 ft 473 kts 100°
2026-05-06 10:50 35.30913 31.57353 34129 ft 471 kts 100°
2026-05-06 10:50 35.30259 31.61269 33863 ft 469 kts 100°
2026-05-06 10:51 35.29604 31.65173 33587 ft 467 kts 100°
2026-05-06 10:51 35.28952 31.69052 33302 ft 464 kts 100°
2026-05-06 10:51 35.28303 31.72908 32759 ft 462 kts 100°
2026-05-06 10:51 35.27656 31.76749 32205 ft 460 kts 100°
2026-05-06 10:52 35.27009 31.80577 31668 ft 459 kts 101°
2026-05-06 10:52 35.26361 31.84390 31123 ft 457 kts 101°
2026-05-06 10:52 35.25713 31.88195 30592 ft 456 kts 101°
2026-05-06 10:52 35.25065 31.91983 30050 ft 454 kts 101°
2026-05-06 10:53 35.24419 31.95753 29511 ft 451 kts 101°
2026-05-06 10:53 35.23777 31.99497 29011 ft 447 kts 100°
2026-05-06 10:53 35.23144 32.03201 28525 ft 443 kts 100°
2026-05-06 10:53 35.22517 32.06874 28039 ft 439 kts 100°
2026-05-06 10:54 35.21892 32.10520 27565 ft 436 kts 101°
2026-05-06 10:54 35.21270 32.14134 27059 ft 433 kts 101°
2026-05-06 10:54 35.20651 32.17720 26566 ft 430 kts 101°
2026-05-06 10:54 35.20033 32.21281 26071 ft 427 kts 101°
2026-05-06 10:55 35.19419 32.24819 25565 ft 424 kts 101°
2026-05-06 10:55 35.18808 32.28334 25054 ft 422 kts 101°
2026-05-06 10:55 35.18207 32.31795 24530 ft 421 kts 101°
2026-05-06 10:55 35.17602 32.35278 24108 ft 416 kts 101°
2026-05-06 10:56 35.17002 32.38728 23667 ft 412 kts 102°
2026-05-06 10:56 35.16405 32.42134 23161 ft 408 kts 102°
2026-05-06 10:56 35.15813 32.45513 22651 ft 405 kts 101°
2026-05-06 10:56 35.15226 32.48861 22173 ft 402 kts 101°
2026-05-06 10:57 35.14642 32.52187 21714 ft 398 kts 101°
2026-05-06 10:57 35.14062 32.55481 21272 ft 395 kts 101°
2026-05-06 10:57 35.13484 32.58754 20839 ft 392 kts 101°
2026-05-06 10:57 35.12911 32.61995 20406 ft 389 kts 101°
2026-05-06 10:58 35.12342 32.65215 19959 ft 387 kts 101°
2026-05-06 10:58 35.11774 32.68416 19537 ft 384 kts 101°
2026-05-06 10:58 35.11211 32.71589 19127 ft 381 kts 101°
2026-05-06 10:58 35.10650 32.74745 18730 ft 379 kts 101°
2026-05-06 10:59 35.10093 32.77876 18338 ft 376 kts 101°
2026-05-06 10:59 35.09540 32.80984 17904 ft 373 kts 101°
2026-05-06 10:59 35.08989 32.84072 17459 ft 371 kts 101°
2026-05-06 10:59 35.08439 32.87136 17020 ft 368 kts 101°
2026-05-06 11:00 35.07892 32.90178 16643 ft 365 kts 101°
2026-05-06 11:00 35.07331 32.93227 15949 ft 371 kts 104°
2026-05-06 11:00 35.06508 32.96214 15503 ft 371 kts 108°
2026-05-06 11:00 35.05655 32.99171 15103 ft 368 kts 108°
2026-05-06 11:01 35.04812 33.02103 14698 ft 365 kts 108°
2026-05-06 11:01 35.03976 33.05017 14304 ft 363 kts 108°
2026-05-06 11:01 35.03146 33.07911 13905 ft 360 kts 108°
2026-05-06 11:01 35.02321 33.10787 13483 ft 358 kts 108°
2026-05-06 11:02 35.01501 33.13636 13060 ft 354 kts 108°
2026-05-06 11:02 35.00687 33.16462 12648 ft 351 kts 108°
2026-05-06 11:02 34.99884 33.19259 12256 ft 348 kts 108°
2026-05-06 11:02 34.99088 33.22028 11846 ft 345 kts 109°
2026-05-06 11:03 34.98299 33.24753 11176 ft 339 kts 109°
2026-05-06 11:03 34.97524 33.27415 10785 ft 323 kts 109°
2026-05-06 11:03 34.96804 33.29883 10545 ft 306 kts 109°
2026-05-06 11:03 34.96103 33.32298 10055 ft 299 kts 109°
2026-05-06 11:04 34.95416 33.34676 9465 ft 296 kts 109°
2026-05-06 11:04 34.94721 33.37075 9091 ft 295 kts 109°
2026-05-06 11:04 34.94049 33.39387 8747 ft 292 kts 109°
2026-05-06 11:04 34.93360 33.41746 8368 ft 291 kts 109°
2026-05-06 11:05 34.92693 33.44031 7997 ft 289 kts 109°
2026-05-06 11:05 34.92021 33.46332 7629 ft 288 kts 109°
2026-05-06 11:05 34.91353 33.48622 7254 ft 286 kts 109°
2026-05-06 11:05 34.90691 33.50900 6887 ft 284 kts 109°
2026-05-06 11:06 34.90031 33.53159 6514 ft 282 kts 109°
2026-05-06 11:06 34.89372 33.55412 6103 ft 282 kts 109°
2026-05-06 11:06 34.88718 33.57648 5726 ft 279 kts 109°
2026-05-06 11:06 34.88074 33.59868 5356 ft 277 kts 107°
2026-05-06 11:07 34.87743 33.62150 4898 ft 271 kts 89°
2026-05-06 11:07 34.87963 33.64396 4384 ft 262 kts 72°
2026-05-06 11:07 34.88590 33.66377 4192 ft 242 kts 67°
2026-05-06 11:07 34.89226 33.68237 3809 ft 237 kts 67°
2026-05-06 11:08 34.89843 33.70070 3580 ft 228 kts 67°
2026-05-06 11:08 34.90431 33.71829 3263 ft 222 kts 68°
2026-05-06 11:08 34.91014 33.73569 2871 ft 223 kts 68°
2026-05-06 11:08 34.91599 33.75309 2598 ft 222 kts 69°
2026-05-06 11:09 34.92185 33.77049 2231 ft 222 kts 70°
2026-05-06 11:09 34.92965 33.78679 1928 ft 227 kts 45°
2026-05-06 11:09 34.94328 33.79580 1721 ft 223 kts 11°
2026-05-06 11:09 34.95826 33.79453 1617 ft 217 kts 336°
2026-05-06 11:10 34.97025 33.78425 1511 ft 209 kts 304°
2026-05-06 11:10 34.97602 33.76841 1482 ft 205 kts 274°
2026-05-06 11:10 34.97463 33.75149 1503 ft 201 kts 245°
2026-05-06 11:10 34.96685 33.73784 1516 ft 194 kts 223°
2026-05-06 11:11 34.95754 33.72649 1523 ft 183 kts 223°
2026-05-06 11:11 34.94902 33.71606 1507 ft 162 kts 221°
2026-05-06 11:11 34.94146 33.70680 1452 ft 150 kts 223°
2026-05-06 11:11 34.93431 33.69804 1349 ft 140 kts 223°
2026-05-06 11:12 34.92747 33.68963 1145 ft 137 kts 223°
2026-05-06 11:12 34.92073 33.68141 1024 ft 138 kts 221°
2026-05-06 11:12 34.91397 33.67313 876 ft 136 kts 222°
2026-05-06 11:12 34.90743 33.66514 697 ft 134 kts 220°
2026-05-06 11:13 34.90080 33.65704 523 ft 137 kts 221°
2026-05-06 11:13 34.89418 33.64892 391 ft 134 kts 221°
2026-05-06 11:13 34.88765 33.64084 176 ft 134 kts 220°
2026-05-06 11:13 34.88107 33.63286 28 ft 133 kts 221°
2026-05-06 11:14 34.87543 33.62604 13 ft 91 kts 225°
2026-05-06 11:14 34.87202 33.62181 15 ft 54 kts 225°
2026-05-06 11:14 34.87018 33.61937 16 ft 31 kts 240°
2026-05-06 11:14 34.86956 33.61732 16 ft 18 kts 255°
2026-05-06 11:15 34.86960 33.61628 15 ft 11 kts 307°
2026-05-06 11:15 34.87026 33.61610 15 ft 10 kts 20°
2026-05-06 11:15 34.87077 33.61666 17 ft 13 kts 45°
2026-05-06 11:15 34.87155 33.61762 15 ft 16 kts 45°
2026-05-06 11:16 34.87229 33.61852 14 ft 14 kts 45°
2026-05-06 11:16 34.87295 33.61934 16 ft 13 kts 46°
2026-05-06 11:16 34.87355 33.62008 14 ft 12 kts 45°
2026-05-06 11:16 34.87413 33.62078 14 ft 13 kts 45°
2026-05-06 11:17 34.87486 33.62175 14 ft 18 kts 50°
2026-05-06 11:17 34.87572 33.62273 14 ft 15 kts 49°
2026-05-06 11:17 34.87643 33.62362 13 ft 14 kts 43°
2026-05-06 11:17 34.87719 33.62452 13 ft 17 kts 45°
2026-05-06 11:18 34.87807 33.62560 13 ft 19 kts 45°
2026-05-06 11:18 34.87905 33.62680 13 ft 21 kts 45°
2026-05-06 11:18 34.88011 33.62808 12 ft 22 kts 45°
2026-05-06 11:18 34.88105 33.62921 12 ft 12 kts 44°
2026-05-06 11:19 34.88171 33.62924 11 ft 11 kts 317°
2026-05-06 11:19 34.88232 33.62849 11 ft 14 kts 315°
2026-05-06 11:19 34.88303 33.62765 11 ft 15 kts 325°
2026-05-06 11:19 34.88383 33.62811 11 ft 14 kts 44°
2026-05-06 11:20 34.88398 33.62914 12 ft 13 kts 134°
2026-05-06 11:20 34.88346 33.62899 11 ft 5 kts 279°
2026-05-06 11:20 34.88343 33.62856 13 ft 5 kts 236°
2026-05-06 11:20 34.88328 33.62840 11 ft 0 kts 221°